GW0183 Weather Reports


Display with metric or nautical units.
time (UTC)temp
F
wind
direction
speed
MPH
gust
MPH
rain 1hr
in
rain 24hr
in
rain mn
in
humidity
%
barometer
mb
20260507081556 58 171 6.0 12.0 0.00 0.00 0.00 55 1011.3
20260507074600 58 171 4.0 11.0 0.00 0.00 0.00 56 1011.2
20260507073057 59 163 5.0 10.0 0.00 0.00 0.00 56 1011.1
20260507071606 59 188 4.0 11.0 0.00 0.00 0.00 56 1010.9
20260507070057 60 236 3.0 8.0 0.00 0.00 0.00 55 1010.8
20260507064616 60 218 4.0 9.0 0.00 0.00 0.00 53 1010.4
20260507063058 60 227 1.0 4.0 0.00 0.00 0.00 52 1010.4
20260507061557 62 228 3.0 8.0 0.00 0.00 0.00 50 1010.3
20260507060057 62 172 3.0 7.0 0.00 0.00 0.00 49 1010.0
20260507054608 63 259 4.0 11.0 0.00 0.00 0.00 50 1010.0
20260507053058 63 238 4.0 8.0 0.00 0.00 0.00 50 1010.0
20260507051559 65 196 2.0 11.0 0.00 0.00 0.00 51 1010.1
20260507044557 66 214 4.0 10.0 0.00 0.00 0.00 52 1010.3
20260507043102 66 205 2.0 11.0 0.00 0.00 0.00 54 1010.4
20260507041608 67 161 6.0 11.0 0.00 0.00 0.00 52 1010.4
20260507040059 68 200 5.0 12.0 0.00 0.00 0.00 53 1010.2
20260507034602 69 196 5.0 16.0 0.00 0.00 0.00 52 1010.1
20260507033057 69 167 6.0 12.0 0.00 0.00 0.00 52 1009.9
20260507031559 69 200 5.0 12.0 0.00 0.00 0.00 53 1010.0
20260507024601 71 144 4.0 11.0 0.00 0.00 0.00 51 1010.1
20260507023112 71 182 4.0 11.0 0.00 0.00 0.00 50 1010.3
20260507021559 72 173 3.0 11.0 0.00 0.00 0.00 47 1010.4
20260507020058 73 184 3.0 9.0 0.00 0.00 0.00 47 1010.4
20260507014607 73 172 3.0 11.0 0.00 0.00 0.00 45 1010.5
20260507013114 73 197 4.0 10.0 0.00 0.00 0.00 45 1010.7
20260507011642 74 182 4.0 10.0 0.00 0.00 0.00 44 1010.7
20260507010622 74 194 5.0 14.0 0.00 0.00 0.00 44 1010.8